Regional Weather Roundup
Issued by NWS Midland/Odessa, TX

Skip options and go directly to product.
Home | Oldest Version | Previous Version | Current Version | All | Text Only | Save Text | Print | Product List | Glossary Off

Skip product version selection by date and time.   

756
ASUS44 KMAF 241710
RWRMAF
MIDLAND AREA WEATHER ROUNDUP
NATIONAL WEATHER SERVICE MIDLAND TX
1200 PM CDT THU JUL 24 2014

...IN SOUTHWEST TEXAS AND SOUTHEAST NEW MEXICO...

CITY           SKY/WX    TMP DP  RH WIND       PRES   REMARKS
ALPINE         SUNNY     83  55  38 CALM      30.30F
ANDREWS        FAIR      90  57  32 SE6       30.18F
ARTESIA        SUNNY     86  55  35 CALM      30.19F
BIG SPRING     SUNNY     94  61  32 N3        30.16F
CARLSBAD       SUNNY     90  56  31 CALM      30.17F
DRYDEN           N/A     92  62  36 SW5       30.10S
FORT STOCKTON  SUNNY     91  58  32 CALM      30.15F
GUAD PASS      SUNNY     82  52  35 NE10      30.34S
HOBBS          SUNNY     88  52  29 VRB5      30.22S
MARFA          SUNNY     81  55  41 NE3       30.29F
MIDLAND AIRPK  SUNNY     91  58  32 E5        30.16F
MIDLAND INTL   SUNNY     90  60  36 E5        30.15F
ODESSA         SUNNY     91  54  28 MISG      30.16F
PECOS          SUNNY     92  58  31 NE3       30.12F
PRESIDIO       FAIR      90  57  32 S5        30.12F
SEMINOLE       SUNNY     89  55  31 SE5       30.20S
SNYDER         SUNNY     89  63  41 E3        30.14F
WINK           SUNNY     94  55  26 NE7       30.12F
$$
...OTHER STATIONS IN TEXAS...

CITY           SKY/WX    TMP DP  RH WIND       PRES   REMARKS
ABILENE        SUNNY     92  66  42 CALM      30.10F
AMARILLO       SUNNY     90  60  36 SW14      30.20F
AUSTIN         PTSUNNY   83  75  77 SE5       30.05F
BROWNSVILLE    MOSUNNY   91  72  53 VRB3      29.99F
CORPUS CHRISTI PTSUNNY   90  71  53 CALM      30.01F
DALLAS FTW     MOSUNNY   88  67  49 NE7       30.05F
DEL RIO        MOSUNNY   91  70  49 MISG      30.02F
EL PASO        MOSUNNY   87  54  32 SE12G17   30.20S
HOUSTON INT    MOSUNNY   87  73  62 NW7       30.02F
LUBBOCK        SUNNY     92  61  35 W6        30.18F
SAN ANGELO     PTSUNNY   90  66  45 CALM      30.10F
SAN ANTONIO    CLOUDY    83  70  64 NE5       30.07F
WACO           SUNNY     88  70  55 VRB6      30.06S
WICHITA FALLS  NOT AVBL
$$
...OTHER LOCATIONS IN NEW MEXICO...

CITY           SKY/WX    TMP DP  RH WIND       PRES   REMARKS
ALAMAGORDO     MOSUNNY   90  52  27 W6        30.23F
ALBUQUERQUE    MOSUNNY   83  48  29 S8        30.32F
CANNON AFB     SUNNY     86  59  38 SW14      30.24F
CLOVIS         NOT AVBL
HOLLOMAN AFB   MOSUNNY   90  53  27 W7G18     30.21F
ROSWELL        SUNNY     90  55  30 CALM      30.19F
RUIDOSO        SUNNY     75  46  35 MISG      30.45F
SANTA FE       SUNNY     79  50  36 W10       30.38S
TRUTH OR CONSE SUNNY     86  49  27 SE7       30.28S
TUCUMCARI      SUNNY     92  54  27 SW15      30.19F
$$

USA.gov is the U.S. government's official web portal to all federal, state and local government web resources and services.